Stations météo

réclame
Mon MeteoGroup
Ponza, Italie (16280): Température de l'air & dewpoint: 18.02.2018 15:00:00 - 24.02.2018 15:00:00 (CET)Ponza, Italie (16280): Vitesse du vent: 18.02.2018 15:00:00 - 24.02.2018 15:00:00 (CET)Ponza, Italie (16280): Direction du vent: 18.02.2018 15:00:00 - 24.02.2018 15:00:00 (CET)Ponza, Italie (16280): reduced air pressure: 18.02.2018 15:00:00 - 24.02.2018 15:00:00 (CET)Ponza, Italie (16280): visibility: 18.02.2018 15:00:00 - 24.02.2018 15:00:00 (CET)Ponza, Italie (16280): Ensoleillement: 18.02.2018 15:00:00 - 24.02.2018 15:00:00 (CET)
Date & Time tt [°C] td [°C] ff [km/h] ff [knt] dd ppp [hPa] vv [km] sd [min]
24.02.2018 15:00:00 - - - - - - - -
24.02.2018 14:00:00 12,6 9,2 11 6 WNW 1004,4 10 30
24.02.2018 13:00:00 12,6 10,1 26 14 WNW 1004,1 10 0
24.02.2018 12:00:00 11,6 9,2 28 15 NW 1004,1 10 0
24.02.2018 11:00:00 11,0 8,7 26 14 W 1004,0 10 0
24.02.2018 10:00:00 10,2 8,0 28 15 WNW 1003,0 10 0
24.02.2018 09:00:00 10,0 8,4 28 15 N 1001,5 7 0
24.02.2018 08:00:00 9,8 8,2 26 14 WNW 1001,0 8 0
24.02.2018 07:00:00 9,6 8,7 22 12 NW 999,0 6 -
24.02.2018 06:00:00 9,6 8,7 26 14 WNW 998,9 6 -
24.02.2018 05:00:00 9,8 8,9 28 15 WNW 998,0 6 -
24.02.2018 04:00:00 10,0 9,4 37 20 NW 996,9 4,0 -
24.02.2018 03:00:00 9,8 9,0 37 20 WNW 996,7 4,0 -
24.02.2018 02:00:00 - - - - - - - -
24.02.2018 01:00:00 9,8 9,2 42 23 NNW 996,0 4,0 -
24.02.2018 00:00:00 9,8 9,0 41 22 N 996,0 2,0 -
23.02.2018 23:00:00 10,0 9,4 39 21 NW 995,9 2,0 -
23.02.2018 22:00:00 10,2 9,4 41 22 N 995,9 2,0 -
23.02.2018 21:00:00 10,8 10,2 41 22 NNE 994,9 6 -
23.02.2018 20:00:00 11,2 10,3 37 20 E 994,7 6 -
23.02.2018 19:00:00 11,8 10,5 34 18 E 994,1 4,0 -
23.02.2018 18:00:00 12,0 11,1 31 17 NE 994,3 2,0 0
23.02.2018 17:00:00 11,2 9,8 29 16 ENE 994,6 4,0 0
23.02.2018 16:00:00 9,8 9,2 26 14 E 994,9 0,5 0
23.02.2018 15:00:00 10,2 9,3 22 12 E 995,8 0,6 0
23.02.2018 14:00:00 9,8 9,2 22 12 E 995,9 0,8 0
23.02.2018 13:00:00 10,8 10,0 22 12 E 996,9 0,8 0
23.02.2018 12:00:00 10,4 9,6 15 8 ENE 997,7 2,0 0
23.02.2018 11:00:00 10,0 9,2 22 12 E 998,0 4,0 0
23.02.2018 10:00:00 9,0 8,4 28 15 ENE 999,0 5 -
23.02.2018 09:00:00 9,0 8,5 22 12 E 999,5 6 0
23.02.2018 08:00:00 9,4 8,0 18 10 SE 1000,0 5 0
23.02.2018 07:00:00 10,0 7,4 15 8 ESE 1000,0 15 -
23.02.2018 06:00:00 10,0 7,1 18 10 SSE 1000,0 40 -
23.02.2018 05:00:00 10,2 6,9 15 8 S 1000,0 40 -
23.02.2018 04:00:00 10,0 7,4 18 10 S 1000,4 40 -
23.02.2018 03:00:00 9,6 6,9 15 8 S 1001,1 30 -
23.02.2018 02:00:00 9,8 7,2 22 12 SSW 1001,0 40 -
23.02.2018 01:00:00 10,0 6,9 22 12 S 1001,2 40 -
23.02.2018 00:00:00 10,0 6,5 22 12 S 1000,9 40 -
22.02.2018 23:00:00 10,0 6,7 22 12 S 1000,4 30 -
22.02.2018 22:00:00 10,0 7,1 28 15 S 1000,0 20 -
22.02.2018 21:00:00 10,0 7,2 28 15 S 999,9 20 -
22.02.2018 20:00:00 10,0 7,6 22 12 S 999,2 20 -
22.02.2018 19:00:00 9,8 8,4 22 12 S 999,0 10 -
22.02.2018 18:00:00 9,6 8,8 28 15 S 998,7 6 0
22.02.2018 17:00:00 10,0 8,6 34 18 ESE 998,0 6 0
22.02.2018 16:00:00 9,2 8,0 41 22 SE 998,0 7 0
22.02.2018 15:00:00 8,6 8,0 28 15 SE 999,1 6 0
22.02.2018 14:00:00 8,0 7,5 28 15 SE 999,2 5 0
22.02.2018 13:00:00 7,4 7,1 21 11 ESE 1000,2 5 0
22.02.2018 12:00:00 7,2 6,5 31 17 SE 1001,1 5 0
22.02.2018 11:00:00 8,6 3,0 24 13 SE 1001,1 10 0
22.02.2018 10:00:00 9,6 6,0 22 12 SSE 1000,9 20 0
22.02.2018 09:00:00 9,2 5,4 11 6 E 1000,0 20 0
22.02.2018 08:00:00 8,6 5,7 15 8 SSE 1000,2 20 0
22.02.2018 07:00:00 8,0 6,5 18 10 SSE 1000,1 10 -
22.02.2018 06:00:00 8,0 6,6 0 0 N 999,9 10 -
22.02.2018 05:00:00 7,8 5,3 13 7 S 1000,1 10 -
22.02.2018 04:00:00 7,8 5,6 13 7 S 1000,3 10 -
22.02.2018 03:00:00 8,4 5,5 15 8 S 1000,7 10 -
22.02.2018 02:00:00 8,2 5,7 21 11 S 1000,9 10 -
22.02.2018 01:00:00 7,8 6,1 0 0 N 1000,5 10 -
22.02.2018 00:00:00 7,4 5,7 0 0 N 1000,6 10 -
21.02.2018 23:00:00 7,6 6,9 11 6 WNW 1000,7 10 -
21.02.2018 22:00:00 7,6 7,0 15 8 W 1000,6 10 -
21.02.2018 21:00:00 7,8 6,6 13 7 W 1000,4 10 -
21.02.2018 20:00:00 8,6 5,7 13 7 N 1000,1 10 -
21.02.2018 19:00:00 8,4 6,0 16 9 N 1000,0 10 -
21.02.2018 18:00:00 8,8 5,5 9 5 N 999,3 10 0
21.02.2018 17:00:00 9,2 6,1 9 5 NNE 999,3 10 0
21.02.2018 16:00:00 9,6 6,1 15 8 NNE 999,4 10 0
21.02.2018 15:00:00 9,8 6,9 13 7 N 999,4 10 0
21.02.2018 14:00:00 14,6 12,3 0 0 N 999,5 15 0
21.02.2018 13:00:00 9,6 7,0 11 6 NNE 1000,0 15 6
21.02.2018 12:00:00 7,8 6,1 11 6 N 999,5 15 0
21.02.2018 11:00:00 7,6 5,6 15 8 NNE 1000,6 10 -
21.02.2018 10:00:00 7,4 5,9 16 9 NNE 999,9 9 0
21.02.2018 09:00:00 6,4 5,2 26 14 NNE 999,9 10 0
21.02.2018 08:00:00 6,0 5,7 22 12 N 999,5 10 0
21.02.2018 07:00:00 6,4 5,8 29 16 NNE 999,6 10 -
21.02.2018 06:00:00 7,2 6,3 15 8 NNE 999,9 10 -
21.02.2018 05:00:00 7,2 5,7 15 8 N 1000,5 10 -
21.02.2018 04:00:00 7,4 4,5 11 6 NNE 1001,1 10 -
21.02.2018 03:00:00 - - - - - - - -
21.02.2018 02:00:00 8,0 6,9 11 6 NW 1000,8 10 -
21.02.2018 01:00:00 7,8 6,7 13 7 NNW 1001,3 10 -
21.02.2018 00:00:00 7,6 6,4 13 7 NW 1001,9 10 -
20.02.2018 23:00:00 7,6 5,7 13 7 WNW 1002,0 10 -
20.02.2018 22:00:00 8,0 5,8 13 7 WNW 1002,0 10 -
20.02.2018 21:00:00 7,8 4,9 11 6 W 1002,6 15 -
20.02.2018 20:00:00 7,8 4,6 15 8 WNW 1002,9 10 -
20.02.2018 19:00:00 8,6 5,7 13 7 W 1002,9 15 -
20.02.2018 18:00:00 8,8 5,5 11 6 WNW 1003,1 20 0
20.02.2018 17:00:00 9,2 5,8 5 3 W 1003,1 20 12
20.02.2018 16:00:00 10,4 6,5 8 4 W 1003,3 20 24
20.02.2018 15:00:00 11,2 6,9 5 3 WSW 1003,8 15 48
20.02.2018 14:00:00 11,0 7,3 5 3 W 1004,4 15 60
20.02.2018 13:00:00 10,8 7,3 0 0 N 1004,8 10 12
20.02.2018 12:00:00 10,6 8,5 0 0 N 1006,2 10 18
20.02.2018 11:00:00 11,2 8,8 9 5 NNW 1006,8 10 48
20.02.2018 10:00:00 9,8 8,1 9 5 WNW 1007,2 10 60
20.02.2018 09:00:00 8,4 7,3 9 5 NNW 1007,3 10 30
20.02.2018 08:00:00 9,2 7,0 13 7 N 1007,1 10 6
20.02.2018 07:00:00 8,4 6,9 11 6 N 1007,2 10 -
20.02.2018 06:00:00 9,0 7,6 15 8 NNW 1007,2 10 -
20.02.2018 05:00:00 9,2 7,7 11 6 WNW 1007,1 10 -
20.02.2018 04:00:00 9,4 6,8 9 5 WNW 1007,3 10 -
20.02.2018 03:00:00 9,6 6,9 11 6 NW 1008,2 10 -
20.02.2018 02:00:00 9,8 7,6 15 8 NNW 1008,5 10 -
20.02.2018 01:00:00 9,8 7,7 13 7 W 1009,0 10 -
20.02.2018 00:00:00 9,4 8,0 0 0 N 1009,6 10 -
19.02.2018 23:00:00 10,0 8,1 8 4 WNW 1009,8 10 -
19.02.2018 22:00:00 10,4 8,7 9 5 NNW 1010,0 10 -
19.02.2018 21:00:00 10,4 8,7 8 4 NW 1010,0 10 -
19.02.2018 20:00:00 11,0 9,4 13 7 W 1010,1 10 -
19.02.2018 19:00:00 11,2 9,5 11 6 WNW 1009,9 10 -
19.02.2018 18:00:00 11,2 9,8 0 0 W 1009,7 10 24
19.02.2018 17:00:00 11,8 10,0 8 4 WNW 1009,9 10 60
19.02.2018 16:00:00 13,4 10,0 0 0 N 1009,9 10 48
19.02.2018 15:00:00 13,6 10,6 5 3 W 1010,3 10 54
19.02.2018 14:00:00 12,6 10,8 13 7 N 1010,9 10 18
19.02.2018 13:00:00 11,6 10,7 15 8 NE 1011,1 10 0
19.02.2018 12:00:00 11,8 10,2 15 8 NNE 1011,3 10 0
19.02.2018 11:00:00 10,4 9,8 16 9 NNW 1011,9 8 0
19.02.2018 10:00:00 10,2 8,6 15 8 N 1011,4 7 0
19.02.2018 09:00:00 10,0 8,4 11 6 NNW 1011,3 7 0
19.02.2018 08:00:00 10,0 9,1 11 6 WNW 1011,1 7 0
19.02.2018 07:00:00 10,0 9,4 9 5 WNW 1011,1 7 -
19.02.2018 06:00:00 - - - - - - - -
19.02.2018 05:00:00 10,0 8,4 11 6 WNW 1011,2 10 -
19.02.2018 04:00:00 10,0 9,4 11 6 WNW 1011,2 10 -
19.02.2018 03:00:00 - - - - - - - -
19.02.2018 02:00:00 10,0 9,5 8 4 NW 1012,2 6 -
19.02.2018 01:00:00 10,0 9,4 9 5 WNW 1012,6 7 -
19.02.2018 00:00:00 10,2 9,6 11 6 WNW 1013,0 6 -
18.02.2018 23:00:00 10,0 9,4 9 5 WNW 1013,0 6 -
18.02.2018 22:00:00 10,2 9,6 13 7 WNW 1013,3 4,0 -
18.02.2018 21:00:00 10,4 10,1 13 7 WNW 1013,1 7 -
18.02.2018 20:00:00 10,4 10,1 9 5 W 1013,1 6 -
18.02.2018 19:00:00 10,2 9,6 8 4 WSW 1013,2 6 -
18.02.2018 18:00:00 10,0 9,7 11 6 N 1013,2 7 0
18.02.2018 17:00:00 10,4 10,0 11 6 SSW 1013,2 3,0 0
18.02.2018 16:00:00 10,2 9,6 9 5 SSW 1013,4 2,0 0
18.02.2018 15:00:00 12,4 11,0 8 4 S 1013,8 10 0

tt = Température de l'air
td = dewpoint
ff = Vitesse du vent
dd = Direction du vent
ppp = reduced air pressure
vv = visibility
sd = Ensoleillement

stations d'obs. à proximité